Waarnemingen

Advertentie
Mijn weer
J6-A, Nederland (6211): temperatuur & dauwpunt: 20.09.2017 02:00:00 - 26.09.2017 02:00:00 (CEST)J6-A, Nederland (6211): windsnelheid & windstoten: 20.09.2017 02:00:00 - 26.09.2017 02:00:00 (CEST)J6-A, Nederland (6211): windrichting: 20.09.2017 02:00:00 - 26.09.2017 02:00:00 (CEST)J6-A, Nederland (6211): luchtdruk: 20.09.2017 02:00:00 - 26.09.2017 02:00:00 (CEST)J6-A, Nederland (6211): zicht: 20.09.2017 02:00:00 - 26.09.2017 02:00:00 (CEST)
Datum & Tijd tt [°C] td [°C] ff [km/u] ff [kn] fx [km/u] fx [kn] dd ppp [hPa] vv [km]
26.09.2017 02:00:00 - - - - - - - - -
26.09.2017 01:00:00 15,9 14,4 21 11 22 12 NO 1023,3 10
26.09.2017 00:00:00 15,9 14,1 16 9 18 10 NO 1023,4 9
25.09.2017 23:00:00 15,7 13,6 18 10 18 10 NO 1023,6 10
25.09.2017 22:00:00 15,7 13,4 18 10 29 16 ONO 1023,4 8
25.09.2017 21:00:00 15,9 13,3 24 13 29 16 O 1023,4 9
25.09.2017 20:00:00 15,7 12,9 16 9 25 14 NO 1023,3 10
25.09.2017 19:00:00 15,2 12,3 22 12 32 18 - 1023,2 10
25.09.2017 18:00:00 15,7 11,9 28 15 29 16 OZO 1022,8 10
25.09.2017 17:00:00 15,8 12,7 26 14 29 16 OZO 1022,9 10
25.09.2017 16:00:00 15,6 13,4 24 13 29 16 OZO 1022,8 10
25.09.2017 15:00:00 16,1 12,9 24 13 32 18 O 1022,7 10
25.09.2017 14:00:00 15,8 12,9 28 15 29 16 OZO 1022,7 10
25.09.2017 13:00:00 16,1 13,0 28 15 29 16 OZO 1022,9 10
25.09.2017 12:00:00 15,8 12,8 22 12 32 18 OZO 1022,7 10
25.09.2017 11:00:00 16,0 13,2 28 15 29 16 OZO 1022,8 10
25.09.2017 10:00:00 15,8 13,8 24 13 29 16 OZO 1022,8 10
25.09.2017 09:00:00 15,8 13,7 28 15 32 18 OZO 1022,6 10
25.09.2017 08:00:00 15,9 13,3 31 17 32 18 OZO 1022,4 10
25.09.2017 07:00:00 15,8 13,7 29 16 29 16 OZO 1022,1 10
25.09.2017 06:00:00 15,6 14,0 29 16 32 18 OZO 1022,1 10
25.09.2017 05:00:00 15,8 14,0 35 19 36 19 OZO 1022,0 10
25.09.2017 04:00:00 15,9 14,0 35 19 32 18 OZO 1022,2 10
25.09.2017 03:00:00 16,1 14,1 31 17 32 18 OZO 1022,8 10
25.09.2017 02:00:00 16,1 13,6 34 18 36 19 OZO 1022,8 10
25.09.2017 01:00:00 16,0 13,5 37 20 36 19 OZO 1023,0 10
25.09.2017 00:00:00 16,0 13,9 37 20 36 19 OZO 1023,1 10
24.09.2017 23:00:00 16,1 13,1 39 21 36 19 OZO 1023,0 10
24.09.2017 22:00:00 16,2 13,2 34 18 32 18 OZO 1023,2 10
24.09.2017 21:00:00 16,1 13,3 35 19 36 19 OZO 1022,9 10
24.09.2017 20:00:00 16,0 13,6 35 19 36 19 OZO 1022,8 10
24.09.2017 19:00:00 16,0 13,3 37 20 36 19 OZO 1022,7 10
24.09.2017 18:00:00 16,3 12,3 39 21 36 19 OZO 1022,5 10
24.09.2017 17:00:00 16,3 12,2 34 18 32 18 OZO 1022,9 10
24.09.2017 16:00:00 16,1 11,4 31 17 32 18 OZO 1023,2 10
24.09.2017 15:00:00 15,9 12,1 29 16 32 18 OZO 1023,4 10
24.09.2017 14:00:00 15,8 11,9 28 15 32 18 OZO 1023,5 10
24.09.2017 13:00:00 15,8 11,4 26 14 32 18 ZO 1023,3 10
24.09.2017 12:00:00 15,7 11,6 26 14 32 18 ZO 1023,4 10
24.09.2017 11:00:00 15,5 10,7 26 14 32 18 ZO 1023,5 10
24.09.2017 10:00:00 15,4 10,2 26 14 29 16 OZO 1023,2 10
24.09.2017 09:00:00 15,1 11,0 29 16 32 18 OZO 1022,9 10
24.09.2017 08:00:00 15,1 10,3 29 16 32 18 OZO 1022,6 10
24.09.2017 07:00:00 14,9 10,7 26 14 29 16 ZO 1022,6 10
24.09.2017 06:00:00 15,0 10,8 26 14 29 16 ZO 1022,6 10
24.09.2017 05:00:00 15,0 10,9 26 14 32 18 OZO 1022,6 10
24.09.2017 04:00:00 15,2 11,1 24 13 29 16 OZO 1022,8 10
24.09.2017 03:00:00 15,3 10,6 26 14 29 16 ZO 1023,1 10
24.09.2017 02:00:00 15,3 11,0 28 15 25 14 OZO 1023,2 10
24.09.2017 01:00:00 15,5 11,6 22 12 25 14 ZO 1023,2 10
24.09.2017 00:00:00 15,6 11,6 21 11 25 14 ZO 1023,2 10
23.09.2017 23:00:00 15,7 11,4 22 12 29 16 ZO 1023,3 10
23.09.2017 22:00:00 15,7 11,4 22 12 25 14 - 1023,4 10
23.09.2017 21:00:00 15,7 11,6 22 12 25 14 - 1023,3 10
23.09.2017 20:00:00 15,7 11,5 15 8 14 8 ZO 1023,2 10
23.09.2017 19:00:00 15,9 11,0 15 8 14 8 ZO 1023,0 10
23.09.2017 18:00:00 16,0 12,0 15 8 18 10 ZO 1023,1 10
23.09.2017 17:00:00 15,9 11,6 15 8 14 8 ZZO 1023,0 10
23.09.2017 16:00:00 16,3 11,6 15 8 14 8 ZZO 1023,5 10
23.09.2017 15:00:00 16,6 11,7 16 9 14 8 Z 1023,7 10
23.09.2017 14:00:00 16,2 11,5 16 9 18 10 Z 1023,9 10
23.09.2017 13:00:00 15,6 11,4 18 10 18 10 Z 1023,8 10
23.09.2017 12:00:00 15,8 11,5 18 10 18 10 Z 1023,7 10
23.09.2017 11:00:00 15,6 11,8 18 10 18 10 Z 1023,5 10
23.09.2017 10:00:00 15,2 11,4 18 10 18 10 Z 1023,4 10
23.09.2017 09:00:00 15,3 11,9 16 9 18 10 ZZO 1023,0 10
23.09.2017 08:00:00 15,1 11,6 18 10 18 10 Z 1022,8 10
23.09.2017 07:00:00 15,1 11,7 16 9 14 8 ZZO 1022,5 10
23.09.2017 06:00:00 15,1 11,6 15 8 18 10 Z 1022,3 10
23.09.2017 05:00:00 15,3 11,5 18 10 22 12 Z 1022,2 10
23.09.2017 04:00:00 15,1 11,1 21 11 22 12 ZZO 1022,4 10
23.09.2017 03:00:00 14,8 10,6 18 10 22 12 ZZO 1022,7 10
23.09.2017 02:00:00 14,6 9,7 18 10 18 10 ZZO 1022,8 10
23.09.2017 01:00:00 14,2 8,3 16 9 18 10 ZZO 1022,4 10
23.09.2017 00:00:00 13,9 7,7 15 8 14 8 Z 1022,3 10
22.09.2017 23:00:00 13,8 7,8 11 6 11 6 Z 1022,6 10
22.09.2017 22:00:00 13,7 8,2 8 4 11 6 ZZW 1022,3 10
22.09.2017 21:00:00 13,6 8,1 8 4 14 8 ZW 1022,1 10
22.09.2017 20:00:00 13,7 8,5 9 5 14 8 ZW 1021,7 10
22.09.2017 19:00:00 14,0 8,9 15 8 18 10 WZW 1021,5 10
22.09.2017 18:00:00 14,4 9,4 8 4 14 8 W 1021,0 10
22.09.2017 17:00:00 14,1 9,3 13 7 18 10 W 1020,9 10
22.09.2017 16:00:00 14,0 10,2 18 10 22 12 W 1020,9 10
22.09.2017 15:00:00 14,0 9,9 11 6 14 8 W 1020,6 10
22.09.2017 14:00:00 13,9 10,7 11 6 14 8 W 1020,6 10
22.09.2017 13:00:00 13,8 10,8 13 7 14 8 W 1020,5 10
22.09.2017 12:00:00 13,8 10,6 13 7 14 8 W 1020,4 10
22.09.2017 11:00:00 13,9 10,5 15 8 14 8 WNW 1020,2 10
22.09.2017 10:00:00 13,8 11,2 15 8 18 10 WNW 1019,7 10
22.09.2017 09:00:00 13,7 11,2 16 9 18 10 WNW 1019,3 10
22.09.2017 08:00:00 13,8 11,3 18 10 18 10 WNW 1018,8 10
22.09.2017 07:00:00 13,9 11,6 18 10 18 10 WNW 1018,4 10
22.09.2017 06:00:00 13,9 11,4 21 11 22 12 WNW 1018,1 10
22.09.2017 05:00:00 14,0 11,4 21 11 22 12 W 1018,1 10
22.09.2017 04:00:00 14,0 11,8 24 13 25 14 WNW 1017,7 10
22.09.2017 03:00:00 13,9 12,7 21 11 25 14 W 1017,4 47
22.09.2017 02:00:00 14,5 13,9 26 14 36 19 ZZW 1017,3 -
22.09.2017 01:00:00 14,6 13,3 35 19 43 23 ZW 1016,9 10
22.09.2017 00:00:00 16,5 13,2 37 20 36 19 Z 1016,6 10
21.09.2017 23:00:00 16,6 13,2 37 20 36 19 Z 1016,4 10
21.09.2017 22:00:00 16,7 13,2 37 20 40 21 Z 1016,3 10
21.09.2017 21:00:00 16,6 13,3 37 20 40 21 Z 1016,1 10
21.09.2017 20:00:00 16,6 12,9 41 22 40 21 Z 1015,8 10
21.09.2017 19:00:00 16,5 12,8 37 20 40 21 Z 1015,5 10
21.09.2017 18:00:00 16,3 13,1 39 21 40 21 Z 1015,2 10
21.09.2017 17:00:00 16,5 13,2 39 21 40 21 ZZO 1015,3 10
21.09.2017 16:00:00 16,4 13,3 37 20 36 19 ZZO 1015,4 10
21.09.2017 15:00:00 16,4 13,3 34 18 36 19 ZZO 1015,5 10
21.09.2017 14:00:00 16,5 13,1 31 17 32 18 Z 1015,7 10
21.09.2017 13:00:00 16,1 13,3 28 15 29 16 Z 1015,9 10
21.09.2017 12:00:00 16,0 13,4 29 16 29 16 Z 1016,0 10
21.09.2017 11:00:00 16,1 13,1 29 16 32 18 Z 1016,1 10
21.09.2017 10:00:00 16,1 12,7 31 17 32 18 Z 1016,1 10
21.09.2017 09:00:00 15,9 12,8 31 17 32 18 ZZW 1015,8 10
21.09.2017 08:00:00 15,8 12,8 31 17 36 19 ZZW 1015,7 10
21.09.2017 07:00:00 15,6 12,6 35 19 36 19 Z 1015,6 10
21.09.2017 06:00:00 15,4 11,8 34 18 36 19 ZZW 1015,6 10
21.09.2017 05:00:00 15,2 11,9 34 18 32 18 Z 1015,8 10
21.09.2017 04:00:00 15,3 11,9 31 17 32 18 ZZW 1016,0 10
21.09.2017 03:00:00 15,5 12,5 34 18 32 18 ZZW 1016,0 10
21.09.2017 02:00:00 15,6 13,2 31 17 32 18 ZZW 1016,1 10
21.09.2017 01:00:00 15,9 13,4 28 15 29 16 ZZW 1015,9 10
21.09.2017 00:00:00 16,0 13,3 29 16 29 16 ZZW 1016,0 10
20.09.2017 23:00:00 15,9 13,9 29 16 29 16 Z 1016,1 10
20.09.2017 22:00:00 15,9 13,5 28 15 29 16 Z 1016,2 10
20.09.2017 21:00:00 15,9 13,2 28 15 29 16 ZZW 1016,5 10
20.09.2017 20:00:00 15,6 13,0 28 15 29 16 ZZW 1016,3 10
20.09.2017 19:00:00 15,4 12,2 28 15 32 18 ZZW 1016,3 10
20.09.2017 18:00:00 15,3 12,2 29 16 32 18 ZZW 1016,4 10
20.09.2017 17:00:00 14,8 12,0 26 14 29 16 ZZW 1016,6 10
20.09.2017 16:00:00 14,5 11,7 29 16 32 18 ZZW 1016,8 10
20.09.2017 15:00:00 14,3 10,6 29 16 32 18 ZZW 1017,0 10
20.09.2017 14:00:00 14,3 11,2 28 15 29 16 ZZW 1017,1 10
20.09.2017 13:00:00 14,4 11,9 24 13 25 14 ZW 1017,3 10
20.09.2017 12:00:00 14,5 11,3 24 13 25 14 ZW 1017,4 10
20.09.2017 11:00:00 14,6 11,5 24 13 25 14 ZW 1017,5 10
20.09.2017 10:00:00 14,8 9,8 26 14 29 16 ZW 1017,5 10
20.09.2017 09:00:00 14,6 10,2 29 16 29 16 ZW 1017,4 10
20.09.2017 08:00:00 14,6 9,4 26 14 29 16 WZW 1017,4 10
20.09.2017 07:00:00 14,6 9,7 31 17 32 18 WZW 1017,5 10
20.09.2017 06:00:00 14,5 9,8 31 17 32 18 WZW 1017,5 10
20.09.2017 05:00:00 14,7 8,6 34 18 32 18 W 1017,7 10
20.09.2017 04:00:00 14,8 8,7 34 18 36 19 W 1018,0 10
20.09.2017 03:00:00 14,8 8,7 35 19 36 19 WZW 1018,3 10
20.09.2017 02:00:00 14,4 9,6 34 18 32 18 WZW 1018,6 10

tt = temperatuur
td = dauwpunt
ff = windsnelheid
fx = windstoten
dd = windrichting
ppp = luchtdruk
vv = zicht

Weerstations in de omgeving